"Pseudo-MPEC" for CEGQ422

Created 2026 Apr 9 6:35:07 UT using Find_Orb

Click here for an explanation of pseudo-MPECs

 
 Astrometry: 
     CEGQ422*1C2026 04 08.27819313 06 41.188-05 34 20.89   ~487Z 21.15GVNEOCPG96
     CEGQ422 1C2026 04 08.28380513 06 39.697-05 35 30.88   ~487Zx20.97GVNEOCPG96
     CEGQ422 1C2026 04 08.28942213 06 38.120-05 36 44.75   ~487Z       VNEOCPG96
     CEGQ422 1C2026 04 08.29503013 06 36.569-05 37 55.63   ~487Z 20.47GVNEOCPG96
     CEGQ422 1C2026 04 08.37132213 06 15.674-05 53 56.54   ~489Z 20.29GVNEOCPI52
     CEGQ422 1C2026 04 08.37417513 06 14.929-05 54 32.72   ~489Z 20.62GVNEOCPI52
     CEGQ422 1C2026 04 08.37777813 06 13.968-05 55 17.26   ~489Z 20.71GVNEOCPI52
     CEGQ422 1C2026 04 08.38138913 06 13.021-05 56 02.58   ~489Z 20.41GVNEOCPI52
     CEGQ422 0C2026 04 08.42800 13 06 01.70 -06 05 35.9    ~48DK 20.3 RVNEOCP291
     CEGQ422 0C2026 04 08.42966 13 06 01.27 -06 05 55.7    ~48DK 20.6 RVNEOCP291
     CEGQ422 0C2026 04 08.43134 13 06 00.87 -06 06 16.2    ~48DK 20.4 RVNEOCP291
     CEGQ422 KB2026 04 08.89117013 05 27.43 -07 39 05.9    ~48M5 20.8 GVNEOCPL01
     CEGQ422 KB2026 04 08.89980713 05 25.41 -07 40 45.4    ~48M5 20.3 GVNEOCPL01
     CEGQ422 KB2026 04 08.90339513 05 28.78 -07 41 19.6    ~48MZ 20.3 GVNEOCPI93
     CEGQ422 KB2026 04 08.91794313 05 25.53 -07 44 08.6    ~48MZ 20.2 GVNEOCPI93
     CEGQ422 1C2026 04 08.93091613 05 17.871-07 46 52.49   ~48Mox20.4 GWNEOCP246
     CEGQ422 1C2026 04 08.93251513 05 17.359-07 47 10.56   ~48Mox20.8 GWNEOCP246
     CEGQ422 1C2026 04 08.93411313 05 16.693-07 47 28.51   ~48Mox20.5 GWNEOCP246
     CEGQ422 |C2026 04 09.05722013 05 17.030-08 02 43.40   ~492K 20.5 GVNEOCP807
     CEGQ422 |C2026 04 09.06392013 05 15.580-08 03 59.20   ~492K 20.9 GVNEOCP807
     CEGQ422 |C2026 04 09.07055013 05 14.160-08 05 15.00   ~492K 20.9 GVNEOCP807
     CEGQ422 KC2026 04 09.21459213 04 44.97 -08 39 03.9    ~495o 21.2 GVNEOCPH21
     CEGQ422 KC2026 04 09.21738913 04 44.29 -08 39 34.5    ~495o 20.9 GVNEOCPH21
     CEGQ422 KC2026 04 09.22158213 04 43.29 -08 40 20.3    ~495o 21.2 GVNEOCPH21
     CEGQ422 KC2026 04 09.22400513 04 42.70 -08 40 46.8    ~495o 21.1 GVNEOCPH21

Station data:
(246) Klet Observatory-KLENOT  (N48.863991 E14.284760)  Czech Republic.
   Observer J. Ticha. Measurer M. Tichy. 1.06-m f/2.7 reflector + 2048x2048
   CCD.
(291) LPL/Spacewatch II  (N31.961669 W111.599905)  US/Arizona.  Observers J.
   V. Scotti, R. S. McMillan. 1.8-m f/2.7 reflector + CCD.
(807) Cerro Tololo Observatory, La Serena  (S30.169133 W70.805900)  Chile.
   Observer R. Holmes. 0.61-m f/6.5 astrograph + CCD.
(G96) Mt. Lemmon Survey  (N32.442729 W110.788720)  US/Arizona.  Observer E.
   J. Christensen. Measurers T. Beuden, V. F. Carvajal, D. Fay, J. B.
   Fazekas, D. C. Fuls, A. R. Gibbs, A. D. Grauer, H. Gröller, J. K. Hogan,
   R. A. Kowalski, S. M. Larson, G. J. Leonard, D. Rankin, R. L. Seaman, F.
   C. Shelly, K. W. Wierzchoś. 1.5-m reflector + 10K CCD.
(H21) Astronomical Research Observatory, Westfield  (N39.483054 W87.968270)
   US/Illinois.  Observer R. Holmes. Measurers S. Foglia, L. Buzzi, T.
   Linder, R. Holmes. 0.40-m f/5.32 astrograph + CCD.
(I52) Steward Observatory, Mt. Lemmon Station  (N32.442570 W110.788920)
   US/Arizona. Measurers T. Beuden, V. F. Carvajal, D. Fay, J. B. Fazekas, D.
   C. Fuls, A. R. Gibbs, A. D. Grauer, H. Gröller, J. K. Hogan, R. A.
   Kowalski, S. M. Larson, G. J. Leonard, D. Rankin, R. L. Seaman, F. C.
   Shelly, K. W. Wierzchoś. 1.0-m prime focus + CCD.
(I93) St Pardon de Conques  (N44.558670 W0.202960)  France.  Observers F.
   Losse, W. D'Anna. Measurer F. Losse. 0.40-m f/3.7 reflector + CCD.
(L01) Višnjan Observatory, Tičan  (N45.290897 E13.749300)  Croatia.
   Observers K. Korlević, L. Poropat. Measurer K. Korlevic. 1.0-m f/2.9
   reflector + CCD.

Orbital elements:  CEGQ422
   Perihelion 2026 Feb 7.250427 +/- 0.0203 TT =  6:00:36.9 (JD 2461078.750427)
Epoch 2026 Apr  9.0 TT = JDT 2461139.5   Earth MOID: 0.0127      AutoNEOCP
M  51.423589941 +/- 0.017           (J2000 ecliptic)
n   0.846484802 +/- 0.000112        Peri.  114.638332 +/- 0.033
a   1.106768030 +/- 9.73e-5         Node    18.514500 +/- 0.000035
e   0.14244688 +/- 0.000182         Incl.    4.103387 +/- 0.0024
P   1.164/425.280d         H 29.00  G  0.15   U  6.6
q 0.949112370 +/- 0.000143    Q 1.264423689 +/- 0.000298
21 of 25 observations 2026 Apr. 8-9 (22.7 hr); mean residual 0".31
Residuals in arcseconds: 
260408 G96  .65-  .12-    260408 291  .08+  .26+    260409 807  .50+  .57-    
260408 G96( .28+  1.6+)   260408 291  .02-  .36+    260409 807  .15+  .27+    
260408 G96  .01+  .51-    260408 L01  .09+  .35-    260409 807  .44+  .18+    
260408 G96  .11+  .10+    260408 L01  .65-  .16+    260409 H21  .05-  .09+    
260408 I52  .03+  .56+    260408 I93  .36+  .14+    260409 H21  .24-  .09+    
260408 I52  .13+  .07-    260408 I93  .14-  .35-    260409 H21  .21-  .11+    
260408 I52  .12-  .24+    260408 246( .31+  5.3+)   260409 H21  .37-  .06+    
260408 I52  .21-  .17-    260408 246( 1.9-  5.6+)   
260408 291  .68+  .30-    260408 246( 6.4-  5.9+)   

Ephemerides (geocentric):
Date (UTC) HH   RA             Dec           delta  r     elong  mag " sig PA
---- --------  ------------   ------------  ------ ------ -----  --- --------
2026 04 09 07  13 04 32.820   -08 48 17.16  .02325 1.0247 178.0 21.1 .167 143
2026 04 09 08  13 04 28.104   -08 55 44.42  .02333 1.0248 177.9 21.1 .177 143
2026 04 09 09  13 04 23.417   -09 03 08.64  .02341 1.0249 177.8 21.1 .187 144
2026 04 09 10  13 04 18.757   -09 10 29.83  .02349 1.0250 177.7 21.2 .199 145
2026 04 09 11  13 04 14.124   -09 17 48.04  .02357 1.0251 177.6 21.2 .210 145
2026 04 09 12  13 04 09.519   -09 25 03.27  .02364 1.0252 177.4 21.2 .222 146
2026 04 09 13  13 04 04.941   -09 32 15.56  .02372 1.0253 177.3 21.2 .235 147
2026 04 09 14  13 04 00.389   -09 39 24.93  .02380 1.0253 177.2 21.2 .248 148
2026 04 09 15  13 03 55.864   -09 46 31.40  .02388 1.0254 177.1 21.2 .262 149
2026 04 09 16  13 03 51.365   -09 53 35.00  .02396 1.0255 177.0 21.3 .276 149
2026 04 09 17  13 03 46.893   -10 00 35.75  .02404 1.0256 176.9 21.3 .291 150
2026 04 09 18  13 03 42.446   -10 07 33.67  .02412 1.0257 176.8 21.3 .306 151
2026 04 09 19  13 03 38.025   -10 14 28.79  .02421 1.0258 176.7 21.3 .322 152
2026 04 09 20  13 03 33.630   -10 21 21.14  .02429 1.0259 176.5 21.3 .338 153
2026 04 09 21  13 03 29.259   -10 28 10.72  .02437 1.0260 176.4 21.3 .355 154
2026 04 09 22  13 03 24.914   -10 34 57.58  .02445 1.0261 176.3 21.3 .372 154
2026 04 09 23  13 03 20.594   -10 41 41.72  .02453 1.0262 176.2 21.4 .390 155
2026 04 10 00  13 03 16.299   -10 48 23.17  .02461 1.0262 176.1 21.4 .408 156
2026 04 10 01  13 03 12.028   -10 55 01.96  .02469 1.0263 176.0 21.4 .427 157
2026 04 10 02  13 03 07.782   -11 01 38.10  .02477 1.0264 175.9 21.4 .446 157
2026 04 10 03  13 03 03.560   -11 08 11.62  .02485 1.0265 175.8 21.4 .465 158
2026 04 10 04  13 02 59.362   -11 14 42.54  .02493 1.0266 175.7 21.4 .485 159
2026 04 10 05  13 02 55.187   -11 21 10.88  .02502 1.0267 175.6 21.4 .506 159
2026 04 10 06  13 02 51.037   -11 27 36.66  .02510 1.0268 175.5 21.4 .527 160
2026 04 10 07  13 02 46.909   -11 33 59.90  .02518 1.0269 175.3 21.5 .548 160
2026 04 10 08  13 02 42.806   -11 40 20.63  .02526 1.0270 175.2 21.5 .570 161
2026 04 10 09  13 02 38.725   -11 46 38.85  .02534 1.0271 175.1 21.5 .592 161
2026 04 10 10  13 02 34.667   -11 52 54.61  .02543 1.0271 175.0 21.5 .615 162
2026 04 10 11  13 02 30.632   -11 59 07.90  .02551 1.0272 174.9 21.5 .638 162
2026 04 10 12  13 02 26.620   -12 05 18.76  .02559 1.0273 174.8 21.5 .661 163
2026 04 10 13  13 02 22.630   -12 11 27.21  .02567 1.0274 174.7 21.5 .685 163
2026 04 10 14  13 02 18.663   -12 17 33.25  .02576 1.0275 174.6 21.5 .709 164
2026 04 10 15  13 02 14.717   -12 23 36.92  .02584 1.0276 174.5 21.6 .734 164
2026 04 10 16  13 02 10.794   -12 29 38.24  .02592 1.0277 174.4 21.6 .759 165
2026 04 10 17  13 02 06.893   -12 35 37.21  .02600 1.0278 174.3 21.6 .784 165
2026 04 10 18  13 02 03.013   -12 41 33.86  .02609 1.0279 174.2 21.6 .810 165
2026 04 10 19  13 01 59.155   -12 47 28.22  .02617 1.0280 174.1 21.6 .835 166
2026 04 10 20  13 01 55.318   -12 53 20.29  .02625 1.0281 174.0 21.6 .862 166
2026 04 10 21  13 01 51.503   -12 59 10.09  .02634 1.0281 173.9 21.6 .888 167
2026 04 10 22  13 01 47.708   -13 04 57.65  .02642 1.0282 173.8 21.6 .915 167
2026 04 10 23  13 01 43.935   -13 10 42.99  .02650 1.0283 173.7 21.7 .942 167
2026 04 11 00  13 01 40.182   -13 16 26.11  .02659 1.0284 173.6 21.7 .970 168
2026 04 11 01  13 01 36.450   -13 22 07.04  .02667 1.0285 173.6 21.7 1.00 168
2026 04 11 02  13 01 32.739   -13 27 45.80  .02675 1.0286 173.5 21.7 1.03 168
2026 04 11 03  13 01 29.048   -13 33 22.40  .02684 1.0287 173.4 21.7 1.05 168
2026 04 11 04  13 01 25.377   -13 38 56.86  .02692 1.0288 173.3 21.7 1.08 169
2026 04 11 05  13 01 21.727   -13 44 29.19  .02701 1.0289 173.2 21.7 1.11 169
2026 04 11 06  13 01 18.096   -13 49 59.43  .02709 1.0290 173.1 21.7 1.14 169